Oconto, WI

3:01 PM CST on December 09, 2019 (GMT -0600)
Oconto Municipal

Weather History for KOCQ - October, 2019

Change the Weather History Date:

Thursday, October 10, 2019

  Actual Average Record
Temperature  
Mean Temperature 54 °F -  
Max Temperature 63 °F 58 °F 69 °F (2013)
Min Temperature 45 °F 35 °F 28 °F (2014)
Degree Days  
Heating Degree Days 11    
Growing Degree Days 4 (Base 50)    
Moisture  
Dew Point 54 °F    
Average Humidity 87    
Maximum Humidity 99    
Minimum Humidity 75    
Precipitation  
Precipitation 0.06 in - - ()
Sea Level Pressure  
Sea Level Pressure 30.06 in    
Wind  
Wind Speed 5 mph (SE)    
Max Wind Speed 13 mph    
Max Gust Speed -    
Visibility 10 miles    
Events      
Averages and records for this station are not official NWS values.
T = Trace of Precipitation, MM = Missing Value Source: NWS Daily Summary

Daily Weather History Graph

Daily Weather History Graph

Search for Another Location

Airport or City:

Astronomy

Oct. 10, 2019 Rise Set
Actual Time 7:00 AM CDT 6:16 PM CDT
Civil Twilight 6:31 AM CDT 6:45 PM CDT
Nautical Twilight 5:57 AM CDT 7:19 PM CDT
Astronomical Twilight 5:23 AM CDT 7:53 PM CDT
Moon 5:27 PM CDT (10/10) 3:31 AM CDT (10/10)
Length of Visible Light 12h 14m
Length of Day
11h 15m
Waxing Gibbous, 91% of the Moon is Illuminated
Oct 10
Waxing Gibbous
Oct 13
Full
Oct 21
Last Quarter
Oct 27
New
Nov 4
First Quarter

Hourly Weather History & Observations

Time (CDT) Temp. Dew Point Humidity Pressure Visibility Wind Dir Wind Speed Gust Speed Precip Events Conditions
12:15 AM 48.9 °F 47.8 °F 96% 30.13 in 10.0 mi Calm Calm - N/A   Clear
12:35 AM 47.3 °F 46.4 °F 97% 30.13 in 10.0 mi Calm Calm - N/A   Clear
12:55 AM 47.3 °F 46.6 °F 97% 30.12 in 10.0 mi Calm Calm - N/A   Clear
1:15 AM 48.7 °F 48.2 °F 98% 30.13 in 10.0 mi Calm Calm - N/A   Clear
1:35 AM 48.9 °F 48.7 °F 99% 30.12 in 10.0 mi Calm Calm - N/A   Clear
1:55 AM 46.8 °F 46.4 °F 99% 30.12 in 7.0 mi Calm Calm - N/A   Clear
2:15 AM 48.0 °F 47.7 °F 99% 30.13 in 10.0 mi Calm Calm - N/A   Clear
2:35 AM 45.7 °F 45.0 °F 97% 30.13 in 10.0 mi Calm Calm - N/A   Clear
2:55 AM 47.8 °F 47.7 °F 99% 30.12 in 10.0 mi SSE 4.6 mph - N/A   Clear
3:15 AM 52.9 °F 51.8 °F 96% 30.12 in 10.0 mi SSE 4.6 mph - N/A   Clear
3:35 AM 54.5 °F 52.2 °F 92% 30.12 in 10.0 mi SSE 5.8 mph - N/A   Clear
3:55 AM 54.9 °F 52.7 °F 92% 30.13 in 10.0 mi SSE 4.6 mph - N/A   Clear
4:15 AM 54.7 °F 52.9 °F 94% 30.13 in 10.0 mi SSE 5.8 mph - N/A   Clear
4:35 AM 54.5 °F 52.9 °F 94% 30.12 in 10.0 mi SE 6.9 mph - N/A   Clear
4:55 AM 54.0 °F 52.7 °F 95% 30.12 in 10.0 mi SE 6.9 mph - N/A   Clear
5:15 AM 53.4 °F 52.0 °F 95% 30.12 in 10.0 mi SE 5.8 mph - N/A   Clear
5:35 AM 54.1 °F 52.0 °F 92% 30.12 in 10.0 mi SSE 5.8 mph - N/A   Clear
5:55 AM 53.4 °F 51.8 °F 94% 30.11 in 10.0 mi SE 5.8 mph - N/A   Clear
6:15 AM 53.6 °F 51.4 °F 92% 30.11 in 10.0 mi SSE 5.8 mph - N/A   Clear
6:35 AM 52.2 °F 50.9 °F 95% 30.10 in 10.0 mi SE 4.6 mph - N/A   Clear
6:55 AM 52.9 °F 51.4 °F 95% 30.10 in 10.0 mi SE 6.9 mph - N/A   Clear
7:15 AM 54.9 °F 51.8 °F 89% 30.11 in 10.0 mi SSE 3.5 mph - N/A   Clear
7:35 AM 55.2 °F 52.5 °F 91% 30.11 in 10.0 mi SE 8.1 mph - N/A   Clear
7:55 AM 55.4 °F 52.7 °F 91% 30.10 in 10.0 mi SE 8.1 mph - N/A   Clear
8:15 AM 56.5 °F 53.4 °F 89% 30.10 in 10.0 mi ESE 8.1 mph - N/A   Clear
8:35 AM 57.6 °F 53.6 °F 87% 30.10 in 10.0 mi SE 8.1 mph - N/A   Clear
8:55 AM 58.3 °F 53.4 °F 84% 30.10 in 10.0 mi ESE 12.7 mph - N/A   Clear
9:15 AM 58.1 °F 53.6 °F 85% 30.09 in 10.0 mi ESE 9.2 mph - N/A   Clear
9:35 AM 59.0 °F 54.0 °F 83% 30.10 in 10.0 mi ESE 8.1 mph - N/A   Scattered Clouds
9:55 AM 58.8 °F 54.1 °F 84% 30.11 in 10.0 mi ESE 6.9 mph - N/A   Mostly Cloudy
10:15 AM 59.0 °F 54.1 °F 84% 30.11 in 10.0 mi ESE 5.8 mph - N/A   Mostly Cloudy
10:35 AM 59.9 °F 54.3 °F 82% 30.11 in 10.0 mi SE 8.1 mph - N/A   Scattered Clouds
10:55 AM 59.2 °F 53.8 °F 82% 30.11 in 10.0 mi SSE 6.9 mph - N/A   Clear
11:15 AM 59.2 °F 54.0 °F 83% 30.11 in 10.0 mi SE 8.1 mph - N/A   Clear
11:35 AM 59.7 °F 54.3 °F 82% 30.11 in 10.0 mi SSE 6.9 mph - N/A   Clear
11:55 AM 60.1 °F 54.1 °F 81% 30.11 in 10.0 mi SSE 10.4 mph - N/A   Clear
12:15 PM 60.1 °F 54.1 °F 81% 30.11 in 10.0 mi SSE 6.9 mph - N/A   Scattered Clouds
12:35 PM 60.8 °F 54.0 °F 78% 30.10 in 10.0 mi South 8.1 mph - N/A   Scattered Clouds
12:55 PM 59.9 °F 54.0 °F 81% 30.09 in 10.0 mi SSE 10.4 mph - N/A   Scattered Clouds
1:15 PM 61.0 °F 54.5 °F 79% 30.08 in 10.0 mi SE 9.2 mph - N/A   Mostly Cloudy
1:35 PM 61.2 °F 54.5 °F 79% 30.07 in 10.0 mi SE 9.2 mph - N/A   Scattered Clouds
1:55 PM 61.3 °F 54.9 °F 79% 30.06 in 10.0 mi East 9.2 mph - N/A   Scattered Clouds
2:15 PM 61.7 °F 55.0 °F 79% 30.05 in 10.0 mi ESE 9.2 mph - N/A   Clear
2:35 PM 63.5 °F 55.6 °F 75% 30.04 in 10.0 mi ESE 9.2 mph - N/A   Clear
2:55 PM 63.1 °F 55.2 °F 75% 30.03 in 10.0 mi ESE 10.4 mph - N/A   Scattered Clouds
3:15 PM 62.2 °F 55.4 °F 78% 30.02 in 10.0 mi ESE 11.5 mph - N/A   Mostly Cloudy
3:35 PM 61.9 °F 55.9 °F 81% 30.02 in 10.0 mi ESE 9.2 mph - N/A   Overcast
3:55 PM 62.2 °F 56.3 °F 81% 30.01 in 10.0 mi SE 11.5 mph - N/A   Overcast
4:35 PM 62.1 °F 56.3 °F 81% 30.01 in 10.0 mi SE 9.2 mph - N/A   Scattered Clouds
4:55 PM 61.9 °F 56.5 °F 82% 30.00 in 10.0 mi ESE 9.2 mph - N/A   Clear
5:15 PM 61.7 °F 56.5 °F 83% 30.00 in 10.0 mi ESE 6.9 mph - N/A   Clear
5:35 PM 61.3 °F 56.3 °F 83% 30.00 in 10.0 mi ESE 8.1 mph - N/A   Clear
5:55 PM 60.8 °F 56.3 °F 85% 30.00 in 10.0 mi ESE 5.8 mph - N/A   Clear
6:15 PM 61.3 °F 55.9 °F 82% 29.99 in 10.0 mi SE 10.4 mph - N/A   Clear
6:35 PM 61.5 °F 55.9 °F 82% 29.99 in 10.0 mi ESE 8.1 mph - N/A   Clear
6:55 PM 60.8 °F 56.1 °F 85% 29.99 in 10.0 mi ESE 6.9 mph - N/A   Clear
7:15 PM 60.8 °F 56.3 °F 85% 29.98 in 10.0 mi SE 6.9 mph - N/A   Scattered Clouds
7:35 PM 60.6 °F 56.3 °F 86% 29.98 in 10.0 mi SE 3.5 mph - N/A   Mostly Cloudy
7:55 PM 60.8 °F 56.5 °F 86% 29.97 in 10.0 mi SE 4.6 mph - N/A   Overcast
8:15 PM 61.0 °F 56.3 °F 85% 29.97 in 10.0 mi SSE 5.8 mph - N/A   Overcast
8:35 PM 61.3 °F 55.9 °F 82% 29.97 in 10.0 mi SSE 4.6 mph - N/A   Overcast
8:55 PM 61.3 °F 55.9 °F 82% 29.97 in 10.0 mi SE 4.6 mph - N/A   Overcast
9:15 PM 60.4 °F 55.8 °F 85% 29.97 in 10.0 mi ESE 3.5 mph - N/A   Overcast
9:35 PM 59.9 °F 55.9 °F 87% 29.96 in 10.0 mi ESE 5.8 mph - N/A   Overcast
9:55 PM 60.8 °F 55.9 °F 84% 29.96 in 10.0 mi SE 8.1 mph - N/A   Overcast
10:15 PM 61.3 °F 55.9 °F 82% 29.95 in 10.0 mi SE 10.4 mph - N/A   Overcast
10:35 PM 61.7 °F 55.8 °F 81% 29.95 in 10.0 mi SSE 6.9 mph - N/A   Overcast
10:55 PM 60.6 °F 56.8 °F 87% 29.95 in 10.0 mi SSE 8.1 mph - N/A   Overcast
11:15 PM 59.2 °F 57.6 °F 94% 29.95 in 5.0 mi SSE 6.9 mph - 0.04 in   Overcast
11:35 PM 58.6 °F 57.7 °F 97% 29.94 in 7.0 mi SE 5.8 mph - 0.06 in   Overcast
11:55 PM 58.6 °F 57.7 °F 97% 29.93 in 10.0 mi ESE 8.1 mph - 0.06 in   Overcast